Wind_Speed
22 24 23 23 24 24 23 21 21 21 22 22 22 23 23 23 22 20 17 16 15 14 13 12 11 10 7 7 14 7 6 6 5 15 15 15 18 17 16 17 15 8 10 17 37 4 11
24 25 24 24 25 25 24 22 22 22 22 23 24 25 24 23 22 21 19 17 15 13 12 11 9 8 6 14 6 2 2 8 5 13 14 15 17 16 19 19 16 6 22 22 19 8 5
25 25 23 22 23 24 23 22 22 23 24 25 26 27 24 21 22 21 20 16 13 13 10 8 7 6 9 18 4 4 6 7 9 11 14 14 16 15 15 16 14 17 11 12 8 9 8
27 27 24 23 24 26 25 24 22 23 24 26 28 28 25 21 20 20 21 15 14 11 9 6 3 4 9 3 14 10 8 10 12 12 13 12 15 17 17 16 21 11 15 13 16 13 11
29 29 26 24 25 27 27 25 24 24 25 26 28 30 28 22 18 19 17 16 13 8 5 3 2 4 12 8 7 10 13 12 12 12 14 10 12 18 14 14 13 13 13 17 17 18 13
33 32 26 23 25 27 28 26 25 24 26 28 29 29 27 21 17 17 14 15 10 5 3 4 7 8 12 8 7 4 10 14 14 12 14 10 12 13 14 14 14 15 17 17 17 13 17
35 32 28 23 24 26 28 28 26 26 26 28 29 29 26 21 16 11 10 10 6 1 7 14 3 11 2 5 5 8 11 12 16 16 16 18 12 14 19 20 18 21 17 20 14 10 12
37 32 27 22 23 26 28 28 28 26 26 28 29 28 25 19 12 7 11 10 7 8 11 14 10 10 10 6 8 11 13 15 17 16 17 15 18 18 18 19 20 22 22 19 6 10 9
34 33 30 22 23 25 28 29 29 27 27 27 28 27 21 14 7 8 6 7 9 10 8 14 11 9 5 9 11 13 14 19 15 17 18 20 19 19 19 18 20 21 22 16 10 10 9
36 33 30 22 22 26 28 30 31 29 28 28 27 23 17 9 5 8 2 10 10 8 5 13 12 7 7 8 10 3 13 16 14 17 20 20 22 21 20 19 19 19 21 21 16 12 10
33 35 31 25 21 25 28 30 31 29 29 28 25 19 10 9 6 8 10 10 9 3 5 13 12 7 4 12 9 14 9 12 13 16 15 20 21 23 14 21 16 17 17 21 22 15 13
33 35 32 26 22 25 28 30 31 29 29 26 21 15 6 6 5 8 10 10 5 5 4 5 4 8 13 15 9 7 9 13 12 17 16 19 22 21 16 14 17 12 19 20 21 17 14
31 34 33 28 22 25 28 31 30 29 28 24 20 12 6 4 4 11 10 6 6 8 4 5 5 4 13 13 10 9 12 13 12 9 15 17 22 17 20 16 15 16 17 12 13 14 16
28 31 33 31 24 25 28 31 29 28 27 24 19 9 6 5 7 10 7 8 10 11 4 6 4 8 11 5 10 10 12 12 15 14 11 13 15 22 13 18 17 18 19 13 18 15 16
27 30 34 31 27 26 28 31 28 26 25 25 13 3 5 8 7 6 9 8 5 11 9 7 11 10 12 2 6 7 9 6 4 0 10 9 15 18 22 15 19 18 18 21 19 17 16
29 31 35 35 28 25 27 30 27 25 23 23 13 5 8 5 5 6 9 15 3 7 8 6 13 4 14 12 12 10 12 7 2 2 7 14 12 17 23 21 22 22 14 18 15 19 16
31 32 35 36 26 22 25 28 26 24 22 18 10 7 5 3 3 10 9 5 4 7 9 6 12 9 10 14 3 13 13 9 3 5 9 13 14 18 17 18 21 17 18 16 19 17 14
32 34 32 36 25 20 23 26 24 24 22 12 11 5 1 2 9 12 3 6 5 4 2 3 5 9 11 11 8 13 6 9 6 6 9 11 12 14 22 10 18 17 20 19 12 18 15
32 32 31 32 27 21 23 24 21 21 23 20 7 13 1 2 5 8 8 2 5 8 4 6 5 2 9 10 5 14 6 10 8 6 7 11 7 11 15 14 17 20 21 20 17 16 19
30 31 29 30 28 22 22 22 18 16 16 14 7 3 7 2 4 7 10 7 3 5 8 6 11 6 10 8 6 8 9 4 3 8 11 5 9 14 11 15 12 20 22 21 21 13 16
29 29 29 28 29 17 20 20 16 13 11 9 6 5 6 6 8 9 6 8 7 3 3 5 5 4 10 9 12 8 11 4 5 5 8 5 13 17 20 18 15 15 21 26 21 21 18
26 26 25 26 16 14 18 18 13 10 4 4 8 7 7 2 5 7 4 8 7 6 4 6 4 10 13 6 11 13 15 2 8 8 9 11 13 14 16 14 18 14 13 19 20 18 20
26 23 24 23 15 13 16 14 11 7 4 4 7 6 6 3 5 6 7 5 4 3 4 4 7 7 9 12 9 11 20 16 11 6 8 12 10 10 15 14 15 15 16 12 15 20 18
22 20 22 17 11 11 14 12 9 6 2 1 7 5 10 5 4 7 5 5 5 10 8 5 6 6 8 11 13 16 21 19 15 13 12 12 9 9 11 14 18 13 15 14 13 14 12
16 16 15 9 10 10 12 9 7 4 3 3 5 5 10 6 8 6 5 7 6 4 2 5 5 6 9 14 11 11 12 15 17 16 14 15 11 8 10 12 13 19 11 11 17 15 12
12 14 10 10 9 9 11 7 5 3 4 5 5 1 6 10 6 7 4 2 7 7 7 3 3 4 7 12 4 5 3 2 8 15 16 14 11 9 9 14 19 10 12 26 14 11 16
13 12 11 9 8 8 10 6 4 3 6 6 2 1 4 11 5 2 2 1 2 2 4 3 1 1 4 3 3 6 1 7 5 5 15 11 11 12 12 9 3 10 13 21 9 7 14
12 11 12 10 9 7 9 5 3 4 7 7 1 3 1 6 4 2 1 2 2 5 3 4 2 3 4 3 3 4 7 4 6 6 4 8 9 9 11 16 11 15 6 6 8 21 20
13 11 13 13 9 6 6 5 4 5 7 9 1 5 2 4 6 3 4 3 2 4 3 5 4 4 6 3 1 4 4 5 11 6 2 5 4 4 3 6 13 16 14 14 16 15 20
Wind_Direction
6 3 2 2 360 358 357 357 356 353 351 351 349 343 337 335 334 328 323 321 317 313 307 304 300 296 299 255 262 254 264 264 284 190 201 225 226 238 246 250 251 168 180 255 266 152 120
2 0 359 359 358 358 357 356 355 354 354 352 349 347 339 332 329 328 325 323 317 314 310 304 291 286 272 257 249 273 247 249 216 195 216 228 231 237 258 255 281 279 155 256 250 147 192
358 355 354 355 356 357 355 353 352 352 352 350 348 348 341 335 325 328 325 321 314 313 309 306 288 270 254 238 241 251 225 231 208 213 227 228 230 242 243 274 265 268 267 255 245 236 179
356 355 354 355 357 357 355 352 351 349 348 347 346 346 343 336 327 327 324 321 313 308 302 295 279 234 257 268 226 240 228 222 214 228 233 235 232 250 258 265 262 254 244 257 221 206 206
2 359 355 354 355 355 355 353 349 347 344 346 347 345 342 336 332 328 329 321 315 303 294 249 184 225 260 225 239 232 217 216 213 225 222 256 244 234 246 251 254 243 240 223 249 196 198
0 359 354 352 352 353 353 352 348 345 343 344 345 345 340 336 336 334 338 327 317 307 335 206 254 249 254 243 172 189 206 213 212 210 214 221 234 228 231 223 228 230 224 234 227 193 216
354 351 353 349 350 351 352 351 348 345 343 342 342 342 339 336 339 350 10 358 320 220 231 249 188 239 242 225 225 235 211 207 218 208 213 208 220 216 224 228 231 254 228 240 233 182 202
1 359 351 345 346 350 351 350 347 343 342 341 340 340 339 339 343 7 7 345 15 325 299 251 243 257 258 244 258 224 199 202 213 212 210 215 229 231 225 230 236 245 259 249 167 322 234
357 356 351 344 346 348 349 348 346 342 340 339 337 337 339 342 30 16 344 340 332 331 268 243 211 229 188 206 234 194 195 207 208 221 212 224 221 235 243 227 235 227 249 254 196 189 243
355 354 352 346 344 344 346 346 345 343 339 338 336 337 339 344 2 347 343 338 331 321 275 184 192 195 190 218 228 222 197 218 237 224 227 230 240 213 225 244 227 241 226 252 243 195 216
356 354 351 344 339 341 343 344 343 341 338 337 335 335 343 7 338 354 317 324 318 285 275 137 151 144 169 224 111 195 219 241 256 234 237 229 224 241 234 222 237 243 246 234 259 218 225
353 352 350 344 336 339 341 342 341 340 338 337 333 330 324 345 332 342 333 318 304 236 257 135 143 209 207 217 219 136 205 226 260 260 239 248 227 230 231 244 252 229 255 260 234 254 244
352 352 350 345 340 340 339 341 341 341 339 338 331 319 280 269 292 322 326 302 241 251 90 150 213 185 231 204 209 214 182 201 226 220 243 222 247 217 232 240 226 225 225 230 223 224 243
347 352 350 346 340 339 339 340 341 342 340 338 331 315 262 303 285 311 315 256 262 299 51 41 308 283 272 205 247 202 228 218 214 258 280 220 214 238 205 233 236 218 228 226 221 219 231
338 344 348 342 336 337 338 340 341 342 341 338 338 330 349 289 290 299 284 249 319 8 5 3 315 264 230 150 274 224 240 254 59 100 278 287 248 207 240 210 244 236 227 241 251 221 231
335 337 340 342 336 331 336 340 339 342 343 339 347 295 239 294 262 269 262 261 46 21 339 305 282 300 280 197 194 244 217 74 63 30 324 292 316 279 210 214 222 249 225 233 244 246 245
332 333 339 339 330 330 335 341 339 340 345 338 318 258 158 333 250 249 250 41 38 64 343 335 327 316 296 309 331 258 232 94 91 324 319 290 272 275 257 197 217 223 244 233 242 242 245
327 329 332 342 330 328 333 340 341 340 345 336 295 273 46 316 252 233 2 36 350 359 39 313 299 300 310 331 279 269 38 74 40 350 293 267 277 260 269 198 225 229 225 237 229 237 250
322 323 330 338 334 326 332 339 342 343 343 348 290 298 320 290 283 324 94 136 331 344 14 336 314 307 350 301 290 283 27 75 27 339 23 340 235 251 258 265 216 228 242 225 244 237 240
314 319 322 328 332 322 327 335 341 342 339 339 292 276 175 212 326 312 339 279 143 109 305 335 314 350 301 273 255 288 279 104 33 293 355 300 273 274 255 239 316 209 229 240 235 233 241
306 314 313 321 319 310 321 331 338 340 340 340 266 33 353 346 29 330 351 348 308 149 50 306 287 252 291 305 281 232 258 194 188 199 256 247 269 276 280 303 300 292 213 225 232 233 239
297 303 311 320 317 312 322 328 337 338 1 347 319 349 342 341 337 283 124 80 311 56 6 348 330 348 315 338 351 343 342 227 271 180 240 256 265 281 284 292 284 275 280 223 235 229 241
288 296 310 315 306 313 322 326 335 336 31 334 346 299 284 132 228 266 60 63 87 345 79 28 322 316 297 8 330 320 310 317 307 329 298 293 276 256 264 260 258 257 253 259 237 237 234
282 295 302 297 290 308 320 321 328 322 280 189 326 300 276 257 310 42 109 125 96 25 344 69 333 6 345 308 292 272 272 263 274 269 260 267 281 275 273 261 248 238 226 247 260 267 270
274 295 305 276 280 301 316 312 316 309 166 91 333 301 302 310 74 134 162 121 116 137 305 323 44 1 319 292 271 259 236 243 234 235 233 247 252 262 250 253 263 246 216 227 225 244 273
269 290 276 273 278 299 314 299 304 286 162 105 321 260 294 303 69 83 162 255 268 176 149 162 79 334 322 306 100 264 298 224 232 210 214 218 228 253 255 240 239 37 344 345 322 202 17
266 272 265 262 269 296 308 281 284 238 164 133 354 329 297 292 91 203 311 155 327 316 166 142 105 334 332 344 311 289 211 311 242 220 175 202 216 218 234 253 146 354 331 327 248 26 355
253 268 235 251 259 283 306 272 259 218 151 124 256 217 32 314 111 213 263 147 168 278 355 66 31 347 7 333 333 319 324 315 269 142 234 205 196 224 229 237 240 358 51 3 345 351 7
245 252 237 239 246 277 300 251 232 206 148 122 56 306 213 297 64 174 196 232 283 2 21 99 117 65 19 63 9 303 318 313 323 302 8 243 317 274 215 220 69 49 71 51 22 5 11
Height
1572 1568 1563 1559 1555 1550 1546 1542 1538 1535 1531 1527 1523 1519 1514 1511 1507 1504 1501 1498 1495 1493 1492 1491 1491 1490 1490 1490 1483 1480 1480 1481 1479 1480 1483 1484 1483 1481 1478 1475 1470 1471 1482 1485 1473 1469 1471
1572 1568 1563 1559 1554 1550 1545 1541 1538 1534 1530 1526 1522 1518 1514 1509 1505 1501 1499 1495 1493 1491 1489 1489 1488 1488 1488 1487 1481 1480 1481 1480 1482 1482 1484 1483 1481 1481 1477 1472 1469 1466 1472 1470 1467 1463 1468
1572 1568 1564 1559 1555 1550 1546 1541 1537 1533 1529 1525 1520 1515 1511 1507 1504 1499 1497 1493 1490 1489 1487 1487 1486 1486 1487 1481 1479 1480 1480 1481 1482 1482 1483 1482 1481 1480 1477 1473 1472 1470 1471 1465 1461 1462 1463
1572 1567 1563 1559 1554 1550 1545 1541 1536 1532 1528 1523 1519 1514 1509 1504 1501 1498 1495 1491 1488 1486 1485 1485 1485 1485 1481 1477 1478 1479 1479 1480 1481 1482 1482 1481 1482 1479 1478 1473 1471 1470 1468 1474 1457 1458 1459
1571 1566 1562 1558 1554 1550 1545 1540 1536 1531 1527 1522 1518 1512 1507 1503 1498 1496 1492 1489 1486 1484 1484 1484 1484 1484 1477 1475 1475 1476 1478 1479 1480 1481 1482 1481 1480 1479 1479 1477 1475 1467 1477 1470 1457 1449 1452
1571 1566 1561 1557 1553 1549 1545 1540 1536 1531 1526 1522 1517 1511 1506 1501 1497 1493 1491 1487 1485 1483 1483 1483 1484 1488 1474 1472 1472 1474 1476 1478 1478 1480 1481 1482 1481 1478 1477 1474 1486 1472 1469 1456 1459 1447 1448
1571 1565 1560 1556 1552 1548 1544 1539 1534 1530 1526 1521 1516 1510 1504 1499 1496 1493 1491 1487 1488 1487 1482 1476 1476 1473 1471 1473 1474 1474 1475 1476 1476 1477 1477 1478 1478 1477 1470 1466 1461 1455 1452 1453 1443 1442 1449
1570 1564 1560 1556 1552 1548 1543 1538 1533 1528 1524 1519 1514 1509 1503 1499 1496 1493 1491 1491 1492 1492 1483 1472 1473 1473 1472 1473 1471 1471 1472 1475 1473 1472 1472 1473 1475 1464 1461 1459 1460 1457 1455 1449 1447 1451 1448
1570 1564 1559 1555 1551 1547 1542 1537 1532 1527 1522 1517 1512 1507 1502 1498 1496 1494 1494 1494 1492 1491 1483 1466 1468 1467 1469 1472 1467 1465 1470 1469 1468 1469 1465 1469 1462 1461 1457 1457 1459 1458 1458 1452 1453 1460 1454
1570 1564 1558 1553 1549 1545 1541 1536 1530 1525 1520 1516 1510 1505 1502 1499 1498 1496 1495 1494 1492 1491 1481 1458 1464 1464 1467 1467 1464 1463 1465 1467 1465 1463 1462 1459 1456 1452 1458 1456 1454 1461 1449 1446 1445 1458 1470
1569 1563 1557 1552 1548 1543 1539 1534 1528 1523 1518 1513 1508 1504 1501 1499 1498 1496 1496 1493 1492 1491 1486 1456 1457 1463 1463 1463 1462 1463 1465 1465 1463 1458 1458 1458 1453 1451 1455 1454 1448 1455 1445 1449 1446 1452 1457
1568 1562 1556 1551 1547 1542 1537 1532 1526 1521 1515 1510 1506 1503 1501 1501 1498 1498 1495 1493 1493 1490 1481 1458 1455 1458 1460 1460 1458 1461 1464 1466 1461 1457 1451 1450 1446 1446 1446 1449 1447 1450 1454 1449 1449 1452 1468
1567 1561 1555 1549 1545 1541 1535 1530 1524 1518 1512 1507 1503 1500 1499 1498 1498 1497 1495 1493 1489 1482 1452 1456 1456 1455 1454 1451 1453 1457 1458 1462 1465 1470 1464 1451 1446 1442 1446 1450 1448 1452 1459 1477 1477 1474 1475
1565 1559 1554 1549 1544 1539 1534 1528 1522 1517 1510 1505 1500 1498 1497 1496 1497 1498 1496 1491 1493 1454 1455 1459 1461 1458 1458 1450 1455 1454 1453 1458 1455 1453 1456 1460 1467 1445 1442 1449 1454 1452 1452 1466 1487 1480 1469
1564 1559 1553 1547 1542 1537 1532 1527 1521 1515 1509 1503 1498 1496 1494 1494 1497 1497 1495 1486 1470 1467 1466 1467 1462 1465 1457 1454 1461 1457 1455 1453 1453 1456 1470 1459 1454 1437 1441 1445 1449 1450 1457 1441 1451 1448 1458
1563 1558 1552 1545 1539 1535 1530 1525 1519 1514 1509 1502 1497 1495 1494 1494 1495 1496 1492 1481 1469 1476 1477 1471 1474 1458 1460 1452 1460 1458 1455 1458 1463 1467 1467 1462 1471 1441 1434 1443 1445 1446 1441 1461 1448 1475 1475
1560 1555 1549 1542 1536 1532 1528 1524 1518 1513 1508 1503 1498 1493 1492 1493 1493 1492 1482 1471 1474 1480 1483 1479 1472 1468 1465 1459 1456 1458 1456 1465 1471 1470 1470 1467 1466 1452 1435 1441 1449 1450 1451 1444 1443 1444 1464
1557 1552 1547 1541 1535 1530 1526 1522 1517 1512 1507 1504 1502 1489 1490 1491 1490 1477 1473 1476 1485 1480 1483 1481 1482 1477 1473 1467 1467 1464 1461 1467 1479 1477 1477 1465 1462 1465 1451 1430 1436 1437 1443 1441 1453 1460 1441
1553 1548 1543 1539 1534 1529 1526 1521 1516 1512 1507 1503 1500 1491 1489 1490 1481 1473 1475 1478 1486 1484 1483 1482 1480 1483 1479 1479 1482 1469 1461 1480 1482 1481 1485 1481 1469 1475 1462 1444 1435 1442 1437 1438 1436 1438 1447
1546 1543 1540 1534 1530 1528 1524 1520 1516 1512 1508 1506 1502 1483 1484 1487 1485 1482 1477 1479 1483 1491 1491 1492 1488 1487 1486 1485 1480 1480 1473 1478 1487 1487 1490 1490 1474 1468 1465 1453 1443 1445 1442 1437 1438 1448 1445
1541 1538 1535 1530 1526 1523 1522 1519 1515 1512 1509 1507 1501 1491 1496 1485 1486 1490 1488 1485 1484 1485 1494 1494 1490 1489 1488 1488 1481 1481 1481 1477 1483 1488 1490 1486 1481 1468 1457 1454 1447 1442 1435 1437 1438 1439 1444
1534 1531 1530 1526 1522 1521 1520 1517 1514 1512 1509 1507 1504 1501 1497 1493 1496 1491 1493 1491 1493 1492 1499 1495 1498 1494 1494 1492 1499 1496 1489 1479 1485 1482 1484 1480 1483 1475 1473 1462 1453 1449 1437 1434 1435 1434 1435
1527 1527 1525 1521 1519 1519 1518 1515 1513 1512 1510 1509 1507 1506 1503 1498 1491 1489 1492 1496 1497 1499 1503 1504 1504 1501 1499 1502 1504 1504 1500 1493 1489 1490 1490 1485 1479 1480 1478 1462 1459 1464 1446 1440 1436 1432 1433
1521 1521 1519 1516 1516 1515 1515 1513 1511 1511 1510 1510 1510 1508 1502 1487 1490 1490 1497 1500 1501 1504 1502 1504 1506 1506 1507 1507 1505 1503 1501 1497 1494 1494 1493 1492 1489 1483 1480 1466 1480 1447 1437 1439 1440 1437 1433
1516 1516 1514 1513 1512 1511 1512 1511 1510 1509 1509 1509 1511 1510 1503 1490 1492 1498 1500 1501 1506 1509 1505 1507 1508 1510 1509 1505 1501 1495 1494 1491 1487 1488 1490 1488 1488 1486 1486 1474 1456 1442 1438 1441 1446 1447 1440
1510 1512 1511 1511 1510 1509 1510 1509 1508 1508 1508 1508 1510 1508 1507 1499 1494 1499 1501 1503 1498 1496 1504 1506 1509 1511 1510 1506 1514 1512 1513 1485 1483 1481 1482 1485 1486 1488 1479 1479 1472 1467 1456 1450 1442 1454 1457
1506 1507 1507 1507 1507 1507 1507 1507 1507 1507 1507 1507 1510 1508 1508 1502 1502 1504 1501 1502 1503 1501 1501 1506 1508 1509 1510 1512 1511 1500 1504 1499 1494 1480 1482 1485 1486 1489 1486 1478 1467 1471 1468 1464 1466 1483 1468
1499 1501 1503 1504 1504 1503 1505 1505 1506 1507 1508 1508 1510 1507 1508 1504 1505 1508 1508 1507 1506 1504 1502 1508 1512 1513 1512 1516 1517 1504 1500 1489 1486 1487 1487 1481 1487 1485 1482 1481 1482 1479 1472 1482 1496 1483 1479
1497 1497 1498 1500 1503 1502 1502 1504 1505 1507 1507 1508 1510 1508 1508 1509 1508 1509 1509 1509 1509 1509 1508 1509 1514 1515 1520 1522 1528 1520 1512 1500 1495 1493 1476 1486 1478 1478 1476 1476 1484 1488 1489 1488 1491 1488 1484